TimeMDT,TemperatureF,Dew PointF,Humidity,Sea Level PressureIn,VisibilityMPH,Wind Direction,Wind SpeedMPH,Gust SpeedMPH,PrecipitationIn,Events,Conditions,WindDirDegrees,DateUTC
12:15 AM,46.4,32.0,57,30.01,-9999.0,SE,4.6,-,N/A,,Clear,140,2012-10-07 06:15:00
12:35 AM,48.2,32.0,54,30.01,-9999.0,Calm,Calm,-,N/A,,Clear,0,2012-10-07 06:35:00
12:55 AM,44.6,32.0,61,30.02,-9999.0,SE,3.5,-,N/A,,Clear,140,2012-10-07 06:55:00
1:15 AM,44.6,32.0,61,30.01,-9999.0,SSE,3.5,-,N/A,,Clear,150,2012-10-07 07:15:00
1:35 AM,44.6,30.2,57,30.02,-9999.0,SSE,5.8,-,N/A,,Clear,150,2012-10-07 07:35:00
1:55 AM,44.6,32.0,61,30.02,-9999.0,SSE,4.6,-,N/A,,Clear,150,2012-10-07 07:55:00
2:15 AM,42.8,32.0,66,30.02,-9999.0,SE,4.6,-,N/A,,Clear,140,2012-10-07 08:15:00
2:35 AM,42.8,30.2,61,30.01,-9999.0,SE,4.6,-,N/A,,Clear,140,2012-10-07 08:35:00
2:55 AM,42.8,30.2,61,30.02,-9999.0,SE,4.6,-,N/A,,Clear,140,2012-10-07 08:55:00
3:15 AM,41.0,30.2,65,30.02,-9999.0,SSE,3.5,-,N/A,,Clear,150,2012-10-07 09:15:00
3:35 AM,41.0,32.0,70,30.01,-9999.0,SSE,5.8,-,N/A,,Clear,150,2012-10-07 09:35:00
3:55 AM,42.8,32.0,66,30.01,-9999.0,SE,5.8,-,N/A,,Clear,140,2012-10-07 09:55:00
4:15 AM,41.0,30.2,65,30.01,-9999.0,SSE,5.8,-,N/A,,Clear,160,2012-10-07 10:15:00
4:35 AM,39.2,30.2,70,30.00,-9999.0,SSE,5.8,-,N/A,,Clear,160,2012-10-07 10:35:00
4:55 AM,42.8,30.2,61,30.00,-9999.0,SE,6.9,-,N/A,,Clear,140,2012-10-07 10:55:00
5:15 AM,42.8,30.2,61,30.00,-9999.0,SE,5.8,-,N/A,,Clear,140,2012-10-07 11:15:00
5:35 AM,41.0,30.2,65,30.00,-9999.0,SE,4.6,-,N/A,,Clear,130,2012-10-07 11:35:00
5:55 AM,42.8,30.2,61,30.00,-9999.0,SE,4.6,-,N/A,,Clear,140,2012-10-07 11:55:00
6:15 AM,41.0,30.2,65,30.00,-9999.0,ESE,5.8,-,N/A,,Clear,120,2012-10-07 12:15:00
6:35 AM,42.8,30.2,61,30.00,-9999.0,SSE,5.8,-,N/A,,Clear,150,2012-10-07 12:35:00
6:55 AM,39.2,30.2,70,30.00,-9999.0,SE,4.6,-,N/A,,Clear,140,2012-10-07 12:55:00
7:15 AM,39.2,30.2,70,30.00,-9999.0,SSE,5.8,-,N/A,,Clear,150,2012-10-07 13:15:00
7:55 AM,39.2,30.2,70,30.01,-9999.0,SE,5.8,-,N/A,,Clear,140,2012-10-07 13:55:00
8:15 AM,41.0,30.2,65,30.01,-9999.0,SE,5.8,-,N/A,,Clear,140,2012-10-07 14:15:00
8:35 AM,39.2,30.2,70,30.02,-9999.0,SE,5.8,-,N/A,,Clear,140,2012-10-07 14:35:00
8:55 AM,41.0,30.2,65,30.02,-9999.0,SSE,4.6,-,N/A,,Clear,150,2012-10-07 14:55:00
9:15 AM,41.0,32.0,70,30.02,-9999.0,SE,6.9,-,N/A,,Clear,140,2012-10-07 15:15:00
9:35 AM,44.6,32.0,61,30.02,-9999.0,SSE,4.6,-,N/A,,Clear,150,2012-10-07 15:35:00
9:55 AM,48.2,32.0,54,30.02,-9999.0,SE,6.9,-,N/A,,Clear,130,2012-10-07 15:55:00
10:15 AM,51.8,33.8,50,30.01,-9999.0,SE,5.8,-,N/A,,Clear,130,2012-10-07 16:15:00
10:35 AM,55.4,33.8,44,30.01,-9999.0,SE,4.6,-,N/A,,Clear,130,2012-10-07 16:35:00
10:55 AM,59.0,33.8,39,30.01,-9999.0,SE,4.6,-,N/A,,Clear,140,2012-10-07 16:55:00
11:15 AM,62.6,32.0,32,30.00,-9999.0,SSE,3.5,-,N/A,,Clear,150,2012-10-07 17:15:00
11:35 AM,66.2,32.0,28,30.00,-9999.0,SE,3.5,-,N/A,,Clear,140,2012-10-07 17:35:00
11:55 AM,68.0,28.4,23,30.00,-9999.0,Calm,Calm,-,N/A,,Clear,0,2012-10-07 17:55:00
12:15 PM,69.8,26.6,20,29.99,-9999.0,SSE,3.5,-,N/A,,Clear,150,2012-10-07 18:15:00
12:35 PM,71.6,26.6,19,29.99,-9999.0,Calm,Calm,-,N/A,,Clear,0,2012-10-07 18:35:00
12:55 PM,75.2,24.8,15,29.98,-9999.0,Calm,Calm,-,N/A,,Clear,0,2012-10-07 18:55:00
1:15 PM,75.2,24.8,15,29.98,-9999.0,Calm,Calm,-,N/A,,Clear,0,2012-10-07 19:15:00
1:35 PM,77.0,23.0,13,29.97,-9999.0,Calm,Calm,-,N/A,,Clear,0,2012-10-07 19:35:00
1:55 PM,78.8,23.0,13,29.97,-9999.0,WNW,3.5,-,N/A,,Clear,290,2012-10-07 19:55:00
2:15 PM,75.2,32.0,21,29.97,-9999.0,NW,11.5,-,N/A,,Clear,310,2012-10-07 20:15:00
2:35 PM,75.2,30.2,19,29.97,-9999.0,WNW,10.4,-,N/A,,Clear,300,2012-10-07 20:35:00
2:55 PM,75.2,28.4,18,29.97,-9999.0,WSW,6.9,-,N/A,,Clear,250,2012-10-07 20:55:00
3:15 PM,75.2,28.4,18,29.96,-9999.0,WNW,5.8,-,N/A,,Clear,300,2012-10-07 21:15:00
3:35 PM,73.4,24.8,16,29.96,-9999.0,WNW,5.8,-,N/A,,Clear,300,2012-10-07 21:35:00
3:55 PM,73.4,28.4,19,29.96,-9999.0,WSW,6.9,-,N/A,,Clear,250,2012-10-07 21:55:00
4:15 PM,71.6,30.2,22,29.95,-9999.0,SW,5.8,-,N/A,,Clear,230,2012-10-07 22:15:00
4:35 PM,71.6,30.2,22,29.95,-9999.0,WSW,4.6,-,N/A,,Clear,240,2012-10-07 22:35:00
4:55 PM,71.6,30.2,22,29.95,-9999.0,WSW,5.8,-,N/A,,Clear,240,2012-10-07 22:55:00
5:15 PM,71.6,30.2,22,29.95,-9999.0,WSW,4.6,-,N/A,,Clear,250,2012-10-07 23:15:00
5:35 PM,69.8,32.0,25,29.95,-9999.0,West,5.8,-,N/A,,Clear,260,2012-10-07 23:35:00
5:55 PM,68.0,32.0,26,29.94,-9999.0,West,4.6,-,N/A,,Clear,260,2012-10-07 23:55:00
6:15 PM,68.0,32.0,26,29.94,-9999.0,West,3.5,-,N/A,,Clear,260,2012-10-08 00:15:00
6:55 PM,64.4,30.2,28,29.94,-9999.0,West,3.5,-,N/A,,Clear,260,2012-10-08 00:55:00
7:15 PM,62.6,30.2,30,29.94,-9999.0,Calm,Calm,-,N/A,,Clear,0,2012-10-08 01:15:00
7:35 PM,62.6,30.2,30,29.94,-9999.0,Calm,Calm,-,N/A,,Clear,0,2012-10-08 01:35:00
7:55 PM,59.0,30.2,34,29.94,-9999.0,Calm,Calm,-,N/A,,Clear,0,2012-10-08 01:55:00
8:15 PM,55.4,33.8,44,29.94,-9999.0,Calm,Calm,-,N/A,,Clear,0,2012-10-08 02:15:00
8:35 PM,53.6,33.8,47,29.94,-9999.0,Calm,Calm,-,N/A,,Clear,0,2012-10-08 02:35:00
8:55 PM,50.0,35.6,58,29.94,-9999.0,Calm,Calm,-,N/A,,Clear,0,2012-10-08 02:55:00
9:15 PM,50.0,35.6,58,29.94,-9999.0,Calm,Calm,-,N/A,,Clear,0,2012-10-08 03:15:00
9:35 PM,48.2,35.6,62,29.95,-9999.0,Calm,Calm,-,N/A,,Clear,0,2012-10-08 03:35:00
9:55 PM,50.0,37.4,62,29.95,-9999.0,Calm,Calm,-,N/A,,Clear,0,2012-10-08 03:55:00
10:15 PM,46.4,37.4,71,29.95,-9999.0,Calm,Calm,-,N/A,,Clear,0,2012-10-08 04:15:00
10:35 PM,46.4,37.4,71,29.95,-9999.0,Calm,Calm,-,N/A,,Clear,0,2012-10-08 04:35:00
10:55 PM,44.6,35.6,71,29.95,-9999.0,Calm,Calm,-,N/A,,Clear,0,2012-10-08 04:55:00
11:15 PM,44.6,35.6,71,29.95,-9999.0,Calm,Calm,-,N/A,,Clear,0,2012-10-08 05:15:00
11:35 PM,44.6,37.4,76,29.95,-9999.0,SSE,3.5,-,N/A,,Clear,160,2012-10-08 05:35:00
11:55 PM,42.8,35.6,76,29.95,-9999.0,SSE,4.6,-,N/A,,Clear,150,2012-10-08 05:55:00